Tracking 30466 objects as of 17-May-2025
HD Live streaming from Space Station
objects crossing your sky now

ATLAS 5 CENTAUR DEB

Track ATLAS 5 CENTAUR DEB now!


NORAD ID: 44645
Int'l Code: 2018-079F
Perigee: 8,419.7 km
Apogee: 33,947.3 km
Inclination: 13.0 °
Period: 758.7 minutes
Semi major axis: 27554 km
RCS: Unknown
Launch date: October 17, 2018
Source: United States (US)
Launch site: AIR FORCE EASTERN TEST RANGE (AFETR)

Note: This is SATELLITE DEBRIS
Your satellite tracking list
Your tracking list is empty




NASA's NSSDC Master Catalog

Two Line Element Set (TLE):
1 44645U 18079F   25136.67742531 -.00000080  00000-0  00000+0 0  9998
2 44645  13.0391  52.6923 4632192 283.9759  30.1990  1.89807618 45514
Source of the keplerian elements: AFSPC